Terminal Aerodrome Forecast
Issued by NWS Blacksburg, VA

Home | Current Version | Previous Version | Text Only | Print | Product List | Glossary On
Versions: 1 2 3 4 5 6 7 8 9 10 11 12 13 14 15
000
FTUS41 KRNK 201120
TAFROA
TAF
KROA 201120Z 2012/2112 05004KT P6SM SCT120 BKN250
     FM201500 08009KT P6SM SCT200
     FM202300 09003KT P6SM SCT250=

USA.gov is the U.S. government's official web portal to all federal, state and local government web resources and services.